Погода в Кононове

Россия / Архангельская область     61°07′10″N   38°46′31″E
темп.,
°C
ветер,
м/с
пор.,
м/с
влажн.,
%
обл.,
%
осадки,
мм/ч
давл.,
гПа
погр.,
м
20 января, чт
чт2000:00−3ю51596100 2.4 995616
03:00−1ююз51193100 2.9 994979
06:00−1ююз51392100 0.1 993715
09:000ююз51191100 0.2 992796
12:000ююз51296100 0.0 993687
15:000ююз51291100 0.0 993628
18:00−1ю51392100 0.0 993670
21:00−2ю51396100 0.3 993646
21 января, пт
пт2100:00−2ю51396100 0.8 993768
03:00−2ю41295100 1.3 994701
06:00−3ю41193100 0.3 995560
09:00−4ю41094100 0.4 998419
12:00−5ююв3894100 0.1 1000390
15:00−5юв2695100 0.2 1002290
18:00−6юв2696100 0.1 1004278
21:00−7вюв3796100 0.3 1005359
22 января, сб
сб2200:00−8вюв3894100 0.3 1007378
03:00−9в3896100 0.3 1009276
06:00−14в2598100 0.0 101175
09:00−15в259767 0.0 101498
12:00−13всв249581 0.0 1016129
15:00−11всв139649 0.1 1018121
18:00−18в119962 0.0 102122
21:00−19юв1110068 0.0 102427
23 января, вс
вс2300:00−21в1110088 0.0 10269
03:00−21в1110099 0.0 102810
06:00−21вюв1110099 0.0 102911
09:00−22ююв11100100 0.0 10319
12:00−14ю129786 0.0 103283
15:00−13ю119756 0.0 103220
18:00−19ююз1110061 0.0 103413
21:00−19ю2410075 0.0 103449
24 января, пн
пн2400:00−19ююз249976 0.0 103565
03:00−18ю2610097 0.0 1034102
06:00−17ююз299995 0.0 1033152
09:00−16ююз3119890 0.0 1032201
12:00−12ююз4129461 0.0 1030274
15:00−10ююз4149179 0.0 1028422
18:00−10ююз5169069 0.0 1026456
21:00−10ююз51788100 0.0 1024479